Theta_e
329 329 329 327 328 328 327 327 327 327 327 327 326 327 327 328 328 327 328 327 327 327 327 328 328 328 327 327 328 328 328 327 327 328 329 328 327 324 317 321 325 326 325 326 325 325 330 331 330 330 328 326 324 325 325 325 325 324 325 325 324 324 323 322 322 321 320 319 319 318 318 318 317 317 317 317 316 316 316 315 315 315 314 314 315
328 329 327 327 327 327 326 326 326 327 326 326 326 325 326 327 327 327 326 326 326 327 327 326 327 327 327 326 328 328 328 327 328 328 329 328 328 327 316 319 323 324 325 325 325 324 328 332 331 330 328 326 325 325 325 325 325 325 324 324 324 323 322 322 321 320 319 319 319 318 317 317 317 316 316 316 315 315 315 314 314 314 314 313 313
328 328 327 327 327 325 325 326 325 326 326 326 327 325 326 326 326 325 326 326 326 328 327 326 327 327 327 327 328 329 329 329 329 329 328 329 328 327 329 316 320 322 324 324 324 324 325 330 332 330 329 326 325 324 325 325 325 324 325 324 324 323 322 321 321 320 319 319 318 317 317 316 316 316 315 315 314 314 314 314 313 313 313 313 313
329 328 327 326 326 325 325 325 325 326 326 326 327 326 325 326 326 328 329 328 327 327 328 326 326 326 327 328 329 329 329 329 329 328 329 329 328 327 326 327 316 317 320 321 323 323 326 327 330 331 328 327 325 325 324 324 324 324 324 324 324 323 323 321 321 320 319 318 318 317 317 316 315 315 315 314 313 313 313 313 313 313 313 312 312
329 328 327 326 325 325 325 325 328 329 328 326 326 325 324 324 326 328 329 329 328 328 329 327 326 326 326 327 328 328 329 329 329 328 328 329 328 327 326 326 327 316 315 317 321 323 325 326 328 329 328 327 325 325 324 323 323 323 323 323 323 323 323 322 320 320 318 319 318 317 316 315 315 315 314 313 313 313 312 312 312 312 312 312 312
329 329 328 326 326 326 327 327 329 330 329 327 324 326 326 327 328 329 326 328 327 328 327 327 327 326 326 327 328 328 329 329 328 328 328 328 328 328 327 325 325 326 326 315 316 320 324 325 327 328 327 326 325 325 324 323 322 322 322 322 322 322 322 322 321 319 319 318 318 317 316 315 315 314 313 313 312 312 312 312 312 312 312 312 312
329 328 328 328 327 327 327 328 329 330 328 328 328 328 328 328 328 328 328 328 327 328 328 326 326 325 325 326 327 329 329 328 328 328 328 328 328 328 328 326 325 326 326 325 314 313 319 324 327 327 326 326 324 326 325 324 322 322 321 322 322 321 321 321 321 320 320 319 317 317 315 315 315 314 313 313 312 312 312 312 311 312 312 311 311
329 329 328 328 327 326 327 328 330 330 329 329 329 327 327 328 329 329 326 327 327 327 327 326 325 325 325 327 327 328 328 328 328 328 328 328 327 328 328 327 326 325 322 325 324 323 314 320 325 327 327 325 325 325 325 325 324 322 321 321 321 321 320 320 320 320 320 318 317 316 315 314 314 314 313 313 312 312 312 312 312 311 311 311 311
329 329 327 327 326 326 327 329 331 330 329 329 327 328 328 328 328 327 326 325 326 327 327 326 326 325 325 327 328 328 328 328 328 328 329 328 328 327 327 326 326 317 322 323 324 325 316 314 320 320 321 326 325 325 325 325 324 323 323 321 321 321 320 319 320 319 319 318 317 317 315 315 314 314 313 313 312 312 312 312 312 311 311 311 311
330 329 328 327 327 327 328 330 331 330 328 328 326 327 328 327 325 327 326 325 324 325 325 326 327 326 324 326 327 327 327 328 328 327 327 327 327 327 327 326 325 324 323 323 324 324 325 318 315 315 313 317 324 326 325 324 324 323 323 322 321 321 320 319 319 319 318 318 317 317 315 315 314 314 313 313 312 312 312 312 312 311 311 311 311
330 329 328 326 326 327 328 329 329 328 328 327 326 326 326 326 325 325 326 325 325 326 327 327 325 325 325 325 326 327 328 328 328 328 327 327 327 326 327 325 324 324 323 323 323 323 323 324 323 322 322 313 321 324 325 325 323 323 324 323 321 321 320 319 319 318 318 317 317 316 316 315 314 314 313 313 313 312 312 312 311 311 311 311 311
330 329 328 327 327 327 328 329 329 327 326 326 325 325 325 325 325 324 325 325 325 324 325 324 323 323 323 325 326 327 327 327 328 327 327 327 327 327 325 325 324 323 323 322 322 322 322 323 323 323 323 319 314 318 322 324 323 323 323 324 323 322 321 320 319 319 318 317 317 316 316 315 315 314 314 313 313 312 312 312 312 312 311 311 311
329 329 328 325 328 328 329 329 328 327 326 325 326 327 327 326 325 325 323 323 324 324 323 323 322 321 323 324 324 326 327 327 326 326 326 327 327 326 325 324 323 322 323 322 321 321 321 322 322 323 322 323 319 312 315 317 318 321 324 323 324 324 323 321 320 319 318 317 317 317 316 316 315 315 314 313 313 313 312 312 312 312 312 311 311
328 329 328 329 328 328 328 328 328 327 326 326 326 323 325 325 324 323 323 321 322 325 323 321 320 317 317 318 320 322 324 325 324 323 325 326 326 325 325 323 322 322 322 321 320 320 320 320 321 322 322 322 322 321 319 317 317 319 323 324 323 323 323 323 321 320 318 317 317 316 316 316 316 315 314 314 313 313 313 313 313 312 312 312 311
329 328 329 329 329 328 328 328 328 327 325 325 326 325 325 324 324 322 322 322 321 323 322 322 318 320 319 315 313 314 320 322 323 322 323 324 324 324 324 323 322 323 322 321 319 319 319 319 319 319 320 320 321 321 320 315 317 316 320 322 322 324 322 322 322 321 318 317 317 317 316 316 316 316 315 314 314 314 313 313 313 312 312 311 311
329 329 328 329 328 328 329 328 328 328 326 325 325 324 324 324 324 323 323 321 321 319 321 322 322 320 313 314 314 313 309 314 318 321 323 322 322 322 323 322 322 321 321 320 319 319 318 318 317 317 318 318 319 319 319 319 317 313 313 313 316 322 323 322 323 322 320 318 317 316 317 316 316 316 315 314 314 313 313 313 313 312 312 312 311
329 329 328 328 329 328 328 328 328 328 327 325 325 325 326 326 325 323 322 320 321 322 322 321 322 324 319 314 313 311 312 315 317 317 320 319 320 321 321 321 321 319 318 319 319 319 317 317 316 316 316 316 316 316 317 317 317 315 313 306 309 316 320 322 321 322 322 320 319 317 316 316 316 316 315 315 314 314 313 313 312 312 312 312 311
329 329 328 327 327 327 328 327 327 327 327 326 325 326 326 326 325 324 323 323 322 322 322 322 321 322 323 322 318 313 314 316 313 311 317 319 321 320 320 320 319 319 318 317 318 317 317 315 315 314 313 313 312 312 312 314 313 315 315 315 313 314 316 318 321 321 322 322 320 319 317 316 315 315 315 315 314 314 313 313 312 312 312 312 311
328 328 328 327 327 327 327 327 327 327 327 326 324 325 326 326 326 325 324 324 323 319 320 322 321 320 321 321 322 322 322 317 313 315 310 315 315 317 318 319 318 317 317 316 316 316 317 315 313 312 312 311 310 309 309 309 309 310 312 314 315 315 315 316 317 319 320 320 320 320 319 317 316 316 315 314 314 314 313 312 312 312 311 311 311
327 328 328 328 327 327 327 327 326 327 325 325 325 326 326 327 325 325 324 323 323 320 320 321 319 319 319 318 319 321 321 320 320 315 313 310 314 314 313 312 314 315 316 316 315 315 315 316 314 313 310 308 307 306 306 305 306 307 307 310 313 315 315 316 315 316 317 318 319 320 320 319 317 316 315 314 314 313 313 313 312 312 311 311 311
327 327 328 328 326 326 327 327 326 326 325 325 326 326 325 325 324 323 323 323 323 322 321 321 321 320 320 318 318 318 319 319 319 319 313 311 311 313 314 315 312 313 314 314 315 316 315 315 315 314 311 308 306 305 303 302 302 303 304 306 310 313 315 315 314 314 315 315 316 317 318 320 319 317 316 315 314 314 314 313 312 312 311 311 311
326 327 327 328 328 327 326 327 326 326 324 325 325 325 325 325 325 324 324 322 323 322 321 322 322 322 321 321 318 317 317 317 317 316 314 313 309 312 314 314 313 315 315 315 314 315 316 315 314 313 312 311 308 305 303 302 301 301 301 300 305 309 312 312 312 312 312 313 314 315 315 317 319 318 317 316 315 314 313 313 313 312 312 311 311
326 326 327 328 328 327 326 327 327 326 325 325 324 324 324 324 324 325 324 322 322 322 320 321 322 321 321 321 320 320 316 314 315 315 314 314 312 311 313 315 315 315 319 319 317 317 316 315 314 314 313 312 311 308 305 304 299 299 297 299 303 305 307 309 310 310 311 312 313 313 314 314 315 317 317 316 316 315 314 313 313 312 312 311 311
326 326 326 326 326 326 326 326 326 326 325 325 325 325 325 325 325 324 323 323 322 321 321 320 320 320 320 321 321 322 321 319 319 319 318 317 315 314 315 316 316 317 319 321 320 318 316 315 314 314 313 312 312 311 308 306 303 297 296 296 300 303 306 307 308 309 311 311 311 312 312 313 313 314 315 315 315 315 315 314 313 313 312 311 311
325 325 326 326 326 326 326 325 325 325 326 326 326 326 326 325 324 324 323 322 321 321 320 320 320 319 319 321 321 321 321 322 322 321 321 321 318 314 316 317 314 315 319 319 318 318 317 316 315 314 313 312 313 312 310 308 306 299 294 296 298 300 302 304 307 308 309 310 311 312 312 312 312 312 313 312 313 313 314 314 312 312 312 311 311
325 325 326 327 326 327 327 327 327 327 326 327 327 327 326 325 325 323 323 323 323 322 321 321 321 321 322 321 322 323 322 323 323 322 321 319 318 316 315 316 316 314 317 314 315 313 314 313 314 313 312 312 312 312 311 309 307 298 294 296 298 298 299 302 305 306 308 309 311 312 312 310 311 311 310 311 311 311 311 312 312 311 310 310 310
326 327 327 327 326 326 327 326 327 326 326 326 326 326 326 325 324 324 323 324 323 322 322 321 321 323 323 322 322 323 323 323 323 322 322 321 320 318 315 311 311 311 309 312 314 312 314 318 314 313 313 312 312 312 311 310 304 299 294 297 299 296 298 300 303 305 306 308 309 312 311 310 309 310 309 309 309 309 310 310 310 310 310 309 308
328 328 327 327 326 326 325 324 326 326 325 325 325 325 325 325 324 324 323 324 323 323 322 322 322 322 323 323 323 322 323 323 323 322 322 322 322 321 318 315 311 307 305 305 309 313 316 314 317 315 314 312 312 311 307 306 308 299 293 300 300 299 297 298 301 303 305 306 308 310 311 311 310 310 309 308 308 308 308 308 308 308 307 306 305
328 328 328 327 327 326 325 325 325 325 325 324 324 325 325 324 324 323 323 324 323 323 324 323 323 323 323 323 323 323 323 324 323 323 323 323 323 322 320 317 315 310 308 304 306 311 315 315 315 317 312 312 310 310 309 308 304 302 303 301 300 299 298 298 299 301 303 304 306 308 310 310 309 309 308 308 307 307 307 306 306 305 305 305 305
327 328 327 327 326 323 326 326 326 325 325 325 324 324 325 324 324 324 324 324 323 323 323 324 324 323 322 324 324 323 323 323 323 323 323 323 321 320 319 318 318 313 312 308 310 313 314 317 314 316 307 306 306 306 306 305 299 299 302 301 299 299 297 297 298 299 301 303 305 306 308 310 308 308 308 307 307 306 307 306 306 306 305 305 304
326 326 326 326 326 326 326 326 326 325 325 325 325 324 324 324 324 323 324 324 323 322 324 324 324 324 323 322 323 322 323 322 323 324 324 322 320 320 320 319 318 316 314 312 307 311 315 314 314 307 305 302 301 302 303 302 299 297 299 299 299 296 293 296 295 297 299 302 304 305 307 308 308 308 307 307 307 307 306 305 305 305 305 303 303
326 326 325 325 325 325 325 325 325 325 325 325 325 325 324 324 323 322 322 322 321 321 321 322 323 322 321 320 320 321 322 322 321 321 320 319 319 319 318 316 315 315 314 312 309 309 310 311 310 303 301 302 301 301 302 301 298 292 297 297 298 293 295 296 294 295 297 299 301 303 304 305 305 306 307 307 307 307 306 305 304 304 303 302 302
326 325 324 325 325 325 325 323 324 324 323 323 324 323 322 322 322 322 321 321 320 321 320 320 321 322 321 319 318 317 317 317 316 316 316 317 315 314 314 314 313 312 311 309 307 307 310 301 303 304 300 301 302 302 302 301 300 297 293 295 296 296 296 296 296 293 294 296 298 300 302 303 304 304 305 305 306 306 305 304 303 303 301 301 300
325 324 324 324 324 324 323 323 322 322 322 322 322 322 321 320 319 320 319 317 318 318 317 316 316 316 316 315 314 313 313 313 313 313 313 312 310 310 310 309 310 311 311 308 306 305 305 303 303 300 301 301 304 302 302 301 300 297 296 296 296 296 295 295 295 295 294 295 296 298 300 301 301 301 303 303 303 303 304 304 301 300 300 300 299
324 323 323 323 322 322 322 322 322 320 320 320 320 320 319 319 318 318 318 317 316 315 313 313 314 314 313 313 313 313 312 310 310 312 312 309 308 308 309 309 307 309 309 306 305 302 303 304 305 304 301 300 301 301 298 298 298 297 296 296 295 294 293 293 293 293 293 293 294 296 297 298 299 300 301 301 301 301 301 300 300 300 299 299 299
321 320 322 322 321 321 320 319 319 319 318 318 318 318 319 318 316 317 317 316 316 316 315 314 313 312 311 311 312 313 309 307 307 306 305 304 304 304 305 305 305 305 305 302 303 304 298 299 301 303 299 298 298 296 296 294 294 294 294 294 294 293 293 293 292 292 292 291 292 293 294 296 297 298 300 300 299 299 299 299 299 298 298 297 297
318 317 317 318 318 317 317 317 316 316 317 317 317 316 317 318 316 316 317 315 314 314 315 315 307 313 311 311 311 310 307 305 305 304 304 302 303 303 304 305 302 303 298 298 298 298 298 298 299 297 294 295 295 295 294 294 294 293 292 292 292 293 293 293 292 292 290 289 290 291 292 294 295 297 298 298 298 298 298 297 297 296 296 295 295
315 314 314 312 312 313 314 315 315 315 316 316 315 315 315 314 316 317 316 315 315 314 313 313 312 311 310 309 311 309 306 306 307 306 304 301 301 299 299 299 298 296 296 296 296 296 296 297 296 296 295 297 297 296 293 293 293 293 294 293 292 292 291 291 291 291 290 289 289 289 290 290 292 294 295 296 296 296 296 296 296 295 294 294 294
314 312 311 311 309 311 312 313 313 314 316 314 313 313 313 312 311 311 312 313 312 310 310 308 307 307 308 309 306 304 303 304 306 305 303 300 300 299 299 299 297 296 297 296 294 294 294 295 295 296 297 296 294 295 292 291 291 291 291 293 294 294 291 291 291 291 290 289 289 288 288 289 290 291 292 293 294 294 294 294 294 294 293 293 293
311 310 310 309 309 308 311 312 312 311 312 312 311 312 313 312 309 309 309 308 306 306 304 304 303 302 303 305 306 304 305 305 305 306 304 301 298 298 298 298 297 298 298 296 294 294 294 294 294 295 294 294 291 290 289 289 290 291 290 291 291 292 293 291 290 290 289 289 289 288 289 288 288 289 289 290 290 291 292 292 293 292 292 292 292
307 308 309 308 308 306 307 308 309 309 309 310 310 310 308 307 308 307 306 306 305 303 300 299 299 300 300 301 302 303 303 296 295 298 298 298 301 298 298 298 297 295 295 294 293 293 294 295 295 295 293 292 294 294 293 292 292 293 294 291 289 290 289 288 290 290 289 287 287 287 288 289 288 288 289 289 290 290 290 290 290 290 291 291 291
303 302 303 305 306 306 304 302 304 305 306 307 301 299 301 306 306 308 306 305 303 301 299 297 295 294 297 298 301 293 291 290 290 291 293 293 294 300 301 297 295 294 292 292 292 293 292 291 294 293 293 294 296 297 295 295 294 293 291 289 287 289 288 287 288 288 287 286 285 285 286 287 286 286 287 286 288 288 288 288 289 289 289 290 290
301 300 301 303 302 304 304 303 301 302 304 305 297 298 300 301 307 308 305 302 301 299 297 297 296 295 295 295 295 291 289 288 290 289 291 291 291 291 292 293 293 296 292 291 292 293 293 293 294 292 294 295 297 297 295 294 293 291 288 288 287 287 286 285 284 286 286 285 285 284 285 287 285 284 285 286 287 287 288 287 287 287 287 288 288
298 298 299 302 302 302 303 303 302 302 302 296 296 297 298 298 299 304 304 302 301 301 299 299 300 298 296 295 294 294 294 295 297 295 291 289 290 290 291 291 291 292 293 293 292 292 291 292 293 293 293 295 294 294 293 291 290 289 288 286 285 285 284 284 284 284 285 285 284 284 284 286 285 284 284 286 286 287 286 286 286 286 287 287 287
297 298 300 301 301 299 300 300 300 300 299 295 295 296 296 297 297 300 304 304 301 299 300 300 300 298 296 293 292 293 295 288 290 295 295 293 288 289 289 289 289 290 292 291 291 294 292 291 291 292 294 294 292 292 290 288 287 285 285 285 285 285 284 284 284 285 285 285 284 283 283 285 286 284 283 285 286 285 285 285 285 286 286 287 287
298 298 298 298 298 297 297 299 299 298 298 294 294 295 295 296 296 298 305 303 301 300 298 298 297 296 295 295 294 293 294 291 293 293 293 293 290 290 290 291 291 288 288 289 289 288 290 292 292 290 292 292 289 289 287 286 284 284 284 284 284 284 283 283 284 284 285 284 283 282 281 284 284 283 283 284 285 284 284 285 285 285 286 286 286
297 298 298 297 297 295 296 297 298 297 298 294 294 294 295 296 296 297 303 302 300 299 298 297 296 296 295 295 296 297 296 292 291 291 292 291 290 288 287 287 288 287 288 289 289 290 290 291 291 291 289 288 287 287 286 286 286 285 285 284 283 283 283 284 284 284 285 285 283 282 280 283 284 282 282 283 284 283 284 285 285 285 285 285 285
297 297 296 296 296 295 295 294 295 297 299 293 293 294 295 295 295 298 299 298 297 297 296 295 296 296 296 297 297 297 296 292 289 289 289 290 287 286 286 286 285 285 286 285 286 287 288 288 288 287 287 286 286 287 287 287 287 286 285 285 284 283 283 283 283 285 284 283 283 282 280 281 283 281 281 283 283 282 283 284 284 282 282 283 284
295 295 296 295 295 295 294 293 294 296 297 294 292 293 294 295 295 297 297 294 296 296 296 295 294 295 296 297 297 295 293 292 289 289 289 288 286 286 285 285 285 285 285 285 286 287 287 287 287 287 287 288 288 288 288 288 287 286 285 284 283 283 282 282 283 283 283 283 283 282 280 279 282 280 279 281 281 281 281 282 281 281 281 282 283
293 294 294 293 293 293 293 293 294 294 294 293 291 293 294 294 294 294 294 294 293 293 296 296 295 294 294 288 290 294 291 290 288 289 289 288 286 286 285 285 284 284 284 284 284 285 286 286 286 285 285 285 286 286 286 286 286 286 285 283 283 283 282 282 281 282 282 283 281 281 279 280 280 281 279 280 281 281 281 281 281 281 280 280 281
293 293 291 292 291 290 292 292 289 292 293 291 290 292 293 294 294 294 294 293 292 292 292 292 291 291 291 287 286 289 289 289 288 289 289 287 286 286 286 285 285 284 284 284 284 284 284 284 284 284 283 283 284 284 284 284 284 285 285 284 284 283 282 282 281 281 280 281 278 280 278 279 278 280 278 277 277 281 279 279 280 280 280 280 280
Wind_Speed
6 6 5 5 4 4 4 4 3 3 3 3 3 3 3 3 3 4 4 4 4 5 4 4 4 4 4 4 5 5 5 5 4 4 4 5 5 2 5 4 6 5 6 7 8 9 8 7 8 8 7 7 7 8 8 8 8 8 8 8 8 8 7 7 7 6 6 6 6 6 6 6 6 7 7 7 7 7 7 7 8 8 8 8 9
7 6 6 6 5 5 5 5 4 4 4 4 4 4 4 3 4 4 4 5 5 4 4 4 5 5 4 4 4 5 5 5 5 5 5 5 5 4 7 6 4 5 5 5 7 8 10 9 8 10 9 8 7 8 8 8 9 8 8 8 8 8 7 7 7 6 6 6 6 5 5 5 5 6 6 6 6 6 6 6 6 6 7 7 7
7 7 6 6 5 5 5 5 5 5 4 4 3 4 4 4 4 5 4 5 4 3 3 4 5 5 5 5 5 5 6 6 6 6 6 5 6 6 4 7 5 5 5 5 6 8 9 10 9 11 10 8 10 9 9 9 9 9 8 8 8 8 8 7 7 7 6 6 6 5 5 5 4 5 5 5 5 4 4 5 5 6 6 6 7
8 7 7 6 6 5 5 5 5 4 5 5 4 4 4 4 4 5 5 4 4 4 4 5 5 5 4 5 5 5 5 6 6 6 6 6 6 6 5 4 7 7 5 5 5 6 9 9 10 10 11 10 9 11 10 10 10 9 8 8 8 8 8 8 8 7 7 6 6 6 5 5 4 4 4 4 3 3 3 3 4 4 5 5 6
8 8 7 6 6 6 6 6 6 5 5 5 5 5 5 4 5 5 5 5 5 5 4 5 6 6 5 5 4 5 6 6 6 6 7 6 6 7 7 5 5 8 7 6 5 6 8 8 9 11 11 11 11 12 12 11 10 10 9 8 8 8 9 8 8 8 7 7 6 6 6 5 4 4 3 2 1 1 1 2 3 3 4 5 5
9 8 8 7 7 7 7 7 7 7 6 5 5 5 5 5 5 5 5 5 6 6 5 6 5 5 5 5 5 5 6 6 7 7 7 7 7 7 7 6 5 5 4 7 8 6 7 6 8 11 12 12 12 13 13 12 11 11 10 10 9 9 9 8 8 8 8 7 7 6 6 5 4 4 3 2 2 1 0 1 2 3 4 4 5
9 8 8 8 8 7 8 7 7 7 6 6 6 6 7 6 5 5 5 6 6 6 6 6 6 6 6 5 5 5 6 7 7 7 8 8 8 7 6 6 5 5 5 5 7 8 5 4 6 11 13 13 13 13 13 13 12 11 11 11 11 10 9 9 8 8 8 7 7 7 6 6 5 4 4 3 2 2 2 1 2 3 4 4 4
10 9 8 8 8 8 7 7 8 8 6 6 7 8 7 7 7 6 5 6 6 7 6 6 6 6 6 5 5 5 6 7 7 8 8 7 7 7 6 6 6 6 6 6 6 5 6 3 3 7 12 14 14 14 14 13 13 12 12 12 12 11 10 10 10 9 8 8 7 8 7 6 6 5 5 4 4 3 3 3 3 3 4 5 5
10 10 9 9 9 8 7 8 8 6 6 6 7 8 8 8 7 7 7 7 7 7 6 6 5 6 6 6 6 6 6 7 7 8 7 7 7 6 6 6 6 4 5 6 6 5 6 7 6 6 6 9 14 15 15 14 14 13 13 13 13 12 11 10 10 10 9 8 8 8 8 7 7 7 6 5 5 4 4 5 4 4 5 5 5
11 10 9 9 8 8 8 8 7 6 6 6 8 8 8 9 9 7 7 7 7 6 6 5 4 5 6 7 7 6 7 7 7 7 7 7 7 7 6 6 6 7 7 7 7 7 6 7 8 7 8 8 8 12 15 15 15 14 14 14 13 13 12 11 11 11 11 10 10 9 9 9 8 8 8 7 6 6 6 5 6 6 6 6 5
12 11 9 9 9 8 8 8 7 6 6 7 8 9 10 9 9 8 7 8 7 7 6 5 5 6 7 8 8 8 8 8 7 7 7 7 8 6 5 6 7 8 8 7 7 7 7 6 6 7 8 10 9 10 12 15 15 15 15 15 14 14 13 13 12 12 12 13 11 10 10 10 10 9 9 9 8 8 7 7 7 7 7 7 7
12 11 10 10 9 8 8 7 6 7 7 8 9 9 10 10 11 11 10 9 9 8 7 7 7 9 9 8 9 9 10 9 8 8 7 7 7 6 6 6 7 8 8 7 7 7 8 8 7 7 7 8 11 9 9 9 8 12 16 16 16 16 15 14 14 14 14 14 13 12 12 11 11 11 10 10 10 9 9 9 8 8 8 8 8
11 9 9 9 9 8 8 7 7 7 9 10 9 10 9 8 8 7 9 9 8 7 7 6 7 8 8 10 9 8 10 9 9 8 8 7 6 6 6 6 7 8 7 7 8 7 8 8 8 8 8 7 7 9 8 8 7 7 11 16 17 17 16 16 15 15 14 14 14 13 13 13 13 12 12 12 11 11 10 10 10 9 9 9 9
11 10 9 9 9 8 8 8 8 9 11 11 11 10 10 10 9 9 9 9 8 6 5 4 6 6 6 7 7 7 9 8 7 8 8 6 6 6 6 7 8 7 6 7 7 8 8 8 7 7 7 7 7 6 7 7 8 9 11 14 16 16 17 18 17 16 15 14 15 15 15 14 14 14 13 13 12 12 12 12 11 11 10 10 10
12 12 12 13 13 10 9 9 9 9 10 11 11 12 11 12 11 10 7 8 8 7 8 9 7 4 5 8 9 8 4 5 7 8 6 6 6 7 7 7 9 7 6 6 7 8 7 7 8 7 6 7 7 7 7 9 10 11 12 12 13 17 18 18 18 18 17 16 16 16 17 17 16 16 15 14 14 13 13 13 12 12 12 12 11
13 13 12 13 13 13 10 10 10 11 11 10 11 12 12 11 11 12 10 9 8 8 9 10 8 4 6 6 5 5 10 5 3 2 4 6 7 8 7 7 7 6 6 7 7 7 7 7 8 7 7 7 6 7 7 8 10 9 10 12 11 13 16 18 18 19 18 17 18 18 18 19 18 17 16 16 15 15 15 14 14 13 13 13 13
13 14 13 13 13 12 11 11 10 11 11 11 11 11 11 10 11 11 12 10 9 7 8 9 11 10 8 7 7 7 7 8 3 7 4 4 7 8 7 8 6 6 6 7 7 7 7 7 7 7 7 6 7 7 7 8 8 8 10 12 12 11 14 17 19 19 20 20 19 19 19 19 20 19 18 18 17 17 16 15 15 14 14 14 14
13 13 13 12 13 13 13 11 10 10 10 10 11 10 11 11 10 10 11 13 10 8 8 9 10 12 13 11 9 9 8 2 2 6 1 4 2 5 7 7 6 6 6 7 7 7 7 7 7 7 7 7 7 7 7 8 8 8 8 10 14 13 14 16 19 21 20 20 21 21 21 21 21 21 21 19 18 17 17 16 16 15 15 15 14
13 13 13 14 13 12 13 13 11 10 9 10 11 11 10 10 9 11 11 9 11 11 10 8 8 10 12 14 13 12 11 8 8 3 8 3 4 5 7 7 6 6 7 8 8 8 8 7 7 8 7 7 7 7 8 9 11 11 12 13 15 17 17 17 18 21 22 22 22 22 22 22 22 21 21 21 19 18 17 16 16 16 16 16 15
13 13 13 14 13 13 13 13 13 12 10 11 11 10 9 9 11 12 11 11 12 12 11 9 10 9 10 12 13 13 13 13 11 10 9 11 8 3 4 5 5 6 8 8 8 9 9 8 8 8 7 7 8 8 8 8 8 9 10 15 17 17 19 20 20 20 21 22 23 22 23 23 22 22 21 20 20 19 18 18 17 17 17 17 16
12 13 13 13 13 13 14 13 13 13 12 12 11 12 13 11 12 12 12 12 12 12 12 11 10 11 9 9 10 11 10 11 10 9 9 8 9 8 7 4 5 7 7 8 9 9 9 9 8 8 7 8 8 9 8 8 9 9 12 15 19 21 21 22 21 21 21 21 22 22 22 22 22 22 21 21 21 21 21 19 19 18 18 17 17
11 13 14 15 15 14 13 14 14 13 12 13 13 13 12 13 13 13 13 14 12 12 13 11 10 10 10 9 8 8 9 9 9 8 8 10 10 7 9 11 12 7 7 8 10 10 9 8 8 8 8 8 8 8 9 11 10 9 13 18 18 21 22 22 22 22 22 21 20 20 21 21 21 22 21 22 22 22 21 21 20 19 19 18 18
10 12 15 14 14 14 14 14 13 12 12 13 12 12 12 12 12 14 13 15 12 13 11 12 11 11 11 10 9 8 7 8 7 7 8 8 8 10 10 10 11 12 10 8 9 9 9 8 8 9 9 9 9 9 10 11 13 13 16 16 15 17 20 21 22 22 22 21 21 19 19 19 19 20 21 21 21 21 22 22 21 19 19 19 19
9 11 13 14 13 13 14 13 12 12 13 12 12 12 12 11 11 11 12 13 13 11 11 11 12 10 10 9 10 10 11 11 9 9 9 12 11 11 9 8 10 10 9 11 8 8 8 9 9 9 9 9 9 9 9 10 11 17 13 14 12 18 20 21 23 22 22 21 21 20 20 19 20 20 20 20 21 21 21 21 22 20 19 19 18
12 12 13 15 13 14 13 12 12 13 13 13 12 13 12 11 11 12 12 12 11 11 10 11 9 9 9 10 11 11 11 10 10 11 11 11 11 11 11 9 11 10 10 10 9 7 8 8 8 7 8 8 8 8 8 8 8 10 14 11 14 16 17 19 22 23 22 21 21 22 22 22 22 21 21 21 21 21 21 21 21 20 19 19 19
11 12 11 13 14 13 13 14 13 13 13 13 13 12 12 11 12 12 13 11 10 12 11 11 11 12 10 11 11 12 11 10 11 11 12 10 9 10 9 7 8 10 7 4 5 6 6 7 8 7 7 8 8 8 8 8 8 11 13 11 12 15 17 19 21 22 23 23 23 22 21 21 21 21 21 21 21 21 20 20 20 20 19 19 20
10 10 10 11 12 13 14 14 13 13 13 13 12 12 12 12 12 12 11 11 11 11 10 11 11 13 14 12 10 10 10 10 10 10 9 9 8 8 6 8 7 7 8 6 6 9 10 6 6 7 8 7 7 7 8 7 8 9 11 10 10 14 15 19 20 21 22 23 23 22 22 22 22 22 21 21 21 20 20 20 20 20 19 19 20
9 9 10 10 11 13 13 14 14 13 13 13 13 12 12 12 11 11 12 7 9 11 11 11 12 13 13 13 13 12 10 10 10 10 9 9 8 6 7 8 11 10 4 5 4 8 6 7 5 7 7 7 6 6 5 6 7 6 8 8 8 9 13 16 19 20 22 22 23 22 23 22 22 21 21 20 19 19 20 20 19 18 18 18 18
9 8 9 10 10 12 13 13 13 13 13 13 12 13 12 12 12 11 11 10 10 12 10 10 10 11 12 12 11 10 10 10 9 8 8 8 8 8 8 10 9 10 6 4 4 7 5 6 7 3 4 3 4 2 4 4 3 4 6 7 8 8 9 12 18 19 20 22 22 23 23 23 24 23 22 22 21 20 20 19 19 18 18 18 17
8 6 9 10 11 13 13 13 12 13 13 12 12 12 12 11 11 12 11 11 11 10 10 11 11 9 10 10 9 9 7 8 9 9 8 7 8 8 8 7 7 10 7 7 6 6 8 6 5 6 2 1 2 2 2 4 3 5 6 6 7 7 9 9 13 17 19 20 22 23 23 24 27 26 24 22 22 22 21 19 18 18 18 18 18
9 9 9 11 12 13 14 13 12 13 12 12 12 12 12 11 10 9 10 9 9 10 9 10 10 9 10 11 9 8 7 8 9 9 9 8 8 8 8 7 8 9 11 10 10 2 4 8 2 1 1 1 1 2 2 3 1 3 5 6 7 8 7 9 12 15 18 20 21 21 22 23 24 25 25 24 24 22 22 21 19 19 18 20 19
11 11 13 15 14 14 14 13 13 13 13 13 12 12 12 11 9 9 8 8 8 8 7 7 7 8 9 9 9 9 8 8 7 7 6 6 6 7 6 5 4 4 4 6 9 11 3 4 2 2 1 2 2 3 3 2 3 5 4 5 6 4 5 7 10 12 15 18 19 19 20 21 21 21 23 24 25 22 22 21 21 20 20 20 19
14 13 15 15 15 15 14 13 14 13 12 12 11 10 10 10 9 9 9 9 10 8 7 8 8 10 9 8 8 7 5 7 5 6 6 7 6 5 4 3 4 3 4 4 7 9 5 2 3 2 1 1 3 2 4 4 2 2 3 4 5 5 5 6 6 9 13 15 17 19 20 18 17 18 20 22 23 22 22 23 23 21 21 20 20
14 15 15 14 14 14 13 14 13 13 10 11 10 10 10 9 9 8 8 8 8 8 7 9 8 7 7 8 7 6 5 6 6 6 6 6 5 5 5 5 5 6 6 6 6 6 9 2 2 1 1 2 4 2 3 4 3 1 3 4 3 5 5 5 5 6 8 13 16 17 17 17 16 16 16 16 18 21 21 21 21 19 19 19 19
13 14 14 14 13 13 13 12 12 11 11 10 9 9 10 10 9 9 9 9 9 8 8 8 7 6 8 8 8 6 5 6 6 6 5 5 4 5 5 4 5 6 6 6 5 6 8 7 3 3 2 2 4 1 0 2 3 2 4 4 4 3 4 5 5 5 6 9 13 15 16 17 16 16 16 16 15 14 17 18 17 16 17 17 17
11 10 11 12 11 11 11 10 10 10 10 10 9 9 10 10 9 9 8 8 7 8 8 8 8 7 7 7 7 6 6 6 6 5 5 4 5 5 5 5 5 6 5 5 6 6 4 6 2 3 1 1 2 1 1 1 2 3 3 4 4 4 5 4 5 6 5 6 11 13 14 16 16 16 15 15 17 18 16 16 16 16 16 16 16
8 7 8 7 9 9 10 11 10 10 10 10 10 10 10 9 9 8 8 8 8 8 8 8 9 8 8 8 7 7 7 7 6 6 5 6 6 5 6 6 7 6 4 4 5 4 5 7 4 1 1 1 1 1 0 2 3 4 4 5 4 4 5 5 4 5 6 6 9 11 12 13 14 15 15 15 14 14 15 15 15 15 15 15 16
8 8 9 9 9 10 9 10 10 10 10 11 10 10 9 8 8 9 8 9 9 8 8 8 8 8 8 8 8 8 7 9 8 7 7 7 6 6 6 5 5 5 5 4 4 5 5 6 5 3 2 1 2 2 3 2 3 4 4 4 4 5 5 5 5 3 2 3 3 5 7 9 12 13 14 14 15 15 15 15 14 16 16 15 16
10 9 9 9 9 9 9 9 10 11 11 10 9 9 9 8 8 8 9 9 8 7 8 8 7 7 8 9 8 7 8 9 8 8 8 6 7 7 8 7 6 7 7 7 6 5 5 5 4 3 3 1 2 3 2 1 2 3 4 6 6 3 4 4 5 2 2 3 5 7 7 7 8 8 10 12 14 16 15 14 15 16 17 20 20
9 10 11 10 9 9 10 10 10 9 9 9 9 9 8 9 8 9 8 8 6 6 7 8 8 7 7 7 8 8 9 8 8 8 7 8 6 7 6 6 6 6 6 5 5 5 5 4 3 3 3 3 2 2 1 1 2 4 4 3 6 6 5 3 3 4 2 2 4 3 5 7 9 12 13 13 13 14 13 13 14 14 14 17 18
9 9 9 9 9 10 9 10 9 9 9 9 9 9 9 8 8 9 9 8 8 7 7 6 6 7 7 7 7 7 9 8 10 8 8 8 7 7 5 6 6 6 5 4 5 4 4 4 4 4 3 4 4 3 3 3 4 3 2 1 4 4 3 4 3 1 2 2 3 3 4 3 5 6 5 6 6 8 10 12 13 14 16 17 18
8 8 8 9 10 11 10 9 8 8 9 7 9 13 12 11 9 8 7 8 9 8 7 7 5 5 5 7 7 8 9 9 9 10 9 9 9 6 6 6 7 7 4 4 4 4 4 3 4 3 3 4 4 5 4 3 2 3 3 3 3 3 2 3 3 1 1 0 2 3 3 1 2 4 4 4 5 5 7 7 7 8 11 14 16
9 9 8 10 10 9 10 9 9 8 8 7 12 13 14 15 11 8 8 8 9 8 7 8 8 8 7 6 5 6 7 6 7 9 8 8 7 7 4 7 8 8 5 5 4 4 4 4 3 3 4 5 4 3 2 2 2 2 2 2 2 2 2 3 3 1 3 1 1 2 4 1 2 2 3 5 5 5 5 6 9 11 14 15 16
8 7 9 10 9 8 7 7 9 9 8 8 12 13 13 13 11 9 9 10 9 8 7 8 8 8 9 7 6 6 6 7 7 6 6 6 7 7 7 8 9 8 3 3 4 4 4 4 3 3 3 4 2 2 2 1 1 1 1 1 1 1 2 2 2 3 1 1 2 3 5 1 2 2 3 5 4 4 5 7 10 12 13 14 15
6 9 9 8 9 7 8 9 9 8 7 9 12 13 13 12 12 10 7 8 9 8 8 8 8 9 9 9 8 5 5 7 6 6 6 6 6 7 7 7 6 6 4 1 1 1 2 3 2 2 4 3 2 2 2 1 0 1 1 1 1 1 2 2 3 3 0 2 2 3 4 3 3 3 3 3 3 3 4 6 9 11 12 12 12
9 9 8 10 8 8 9 9 8 7 7 9 13 12 12 13 14 11 7 8 8 8 9 8 8 8 10 10 8 6 7 7 7 7 7 7 6 5 5 5 4 4 3 3 4 3 0 2 2 3 2 1 1 1 3 3 1 1 1 2 1 2 2 3 4 5 3 2 2 3 4 2 1 2 3 3 2 4 5 7 10 10 10 10 10
10 11 10 9 8 7 8 7 7 8 8 11 13 13 13 13 13 12 7 8 8 9 9 9 9 9 9 8 8 8 9 8 7 9 9 9 6 5 4 3 4 3 3 3 3 2 3 2 2 1 2 2 1 1 2 2 2 2 1 1 1 2 2 3 5 4 3 3 1 2 2 2 0 2 3 3 3 4 4 8 8 8 9 9 9
7 6 6 7 9 9 8 7 7 10 8 11 12 13 13 13 13 9 9 10 9 8 9 9 7 7 8 9 8 9 8 8 10 12 9 6 5 6 6 3 3 3 3 4 5 4 3 2 2 2 2 3 2 2 1 1 1 2 1 2 1 2 2 3 3 1 2 3 0 1 3 4 2 2 3 3 3 5 5 4 6 9 7 7 7
9 9 9 8 7 7 8 8 9 9 8 10 13 13 14 14 12 9 8 5 7 8 8 7 6 6 6 8 8 7 8 9 10 12 11 9 6 7 7 7 3 3 4 4 6 7 6 6 6 7 6 6 5 5 4 3 0 1 1 1 2 0 2 2 2 1 1 1 1 1 2 4 2 2 4 3 4 5 4 2 2 5 6 6 6
10 9 6 7 6 7 8 10 10 10 9 9 14 15 15 16 14 8 6 6 7 5 7 7 6 6 6 9 9 10 7 6 10 12 12 9 7 8 8 9 7 4 4 3 3 4 8 9 9 9 8 7 6 7 7 6 4 2 1 1 1 0 2 2 2 2 3 1 3 2 2 2 2 3 4 5 5 2 1 1 1 1 1 2 3
7 6 5 6 5 5 7 8 8 11 9 8 13 15 16 17 14 8 7 7 7 7 6 6 6 6 7 6 8 7 6 7 13 13 14 10 5 6 7 7 6 6 5 6 6 6 5 4 4 5 4 4 3 3 5 7 7 4 2 2 1 1 1 1 1 2 2 2 2 2 2 2 4 4 4 5 3 1 2 0 1 2 4 3 3
Wind_Direction
216 215 213 216 220 220 218 229 230 232 230 235 241 250 250 240 236 241 243 252 245 241 241 248 252 251 257 261 257 277 285 302 304 292 283 275 278 217 200 239 257 284 302 312 317 304 282 233 214 197 184 191 196 188 177 179 183 182 174 166 159 154 154 150 146 142 138 129 120 113 105 96 87 81 75 66 59 51 43 39 36 35 33 29 28
222 221 218 221 221 221 224 230 232 229 228 235 231 239 251 240 241 242 246 248 250 250 248 257 253 255 251 257 256 269 279 293 287 285 285 270 259 257 181 237 253 269 277 296 301 302 294 300 244 208 202 196 205 199 190 191 194 193 187 174 166 163 163 161 157 152 149 144 134 122 114 102 89 87 80 70 62 52 41 40 32 29 33 24 20
226 222 223 228 226 226 228 226 230 227 226 236 225 239 245 250 250 252 244 248 252 247 251 262 261 254 243 243 253 269 274 277 282 280 273 264 261 273 215 192 231 246 264 275 292 294 286 278 267 225 199 202 192 205 201 202 203 204 197 186 177 175 174 173 170 166 161 156 147 137 124 113 103 90 89 81 65 51 39 35 32 20 21 21 12
224 224 224 224 228 227 226 220 224 225 224 233 236 233 243 251 252 261 265 261 263 255 249 259 262 259 251 242 246 261 269 274 281 276 271 268 263 268 273 202 197 233 249 266 275 283 282 269 273 259 218 208 207 210 209 212 211 210 209 200 191 186 185 183 181 176 173 166 159 149 140 127 119 106 95 95 76 53 48 24 27 15 8 10 9
223 222 218 222 224 225 224 223 230 230 228 232 235 237 243 240 240 237 245 247 252 257 242 249 257 257 249 246 252 259 269 273 274 274 271 257 255 259 267 258 218 191 228 252 252 262 273 270 275 283 217 209 217 215 217 218 217 217 217 216 211 205 198 193 190 185 183 177 169 161 154 143 133 133 127 115 124 73 46 18 2 2 350 354 6
226 221 219 221 222 227 228 228 230 230 231 229 232 235 239 233 244 240 245 248 253 253 252 254 254 251 246 241 243 258 270 270 272 272 269 268 263 256 252 262 238 239 210 202 236 245 265 278 279 280 222 211 222 220 222 223 223 224 223 222 222 222 220 212 202 199 191 187 180 170 167 162 155 150 157 165 167 209 346 354 345 334 333 343 353
225 227 222 225 228 228 230 232 231 228 236 238 242 244 243 249 247 250 259 253 253 254 255 259 262 263 259 244 241 251 263 266 270 268 264 267 264 253 238 243 243 242 220 245 188 221 245 287 293 264 227 221 222 224 226 226 225 227 229 228 231 230 230 230 224 212 202 192 189 182 180 179 176 169 179 187 198 224 245 267 295 308 320 324 334
227 226 230 228 233 235 229 228 226 229 233 239 244 248 248 248 251 255 267 262 257 255 248 254 257 261 259 251 249 245 257 268 268 265 265 265 263 251 234 233 235 244 229 245 257 198 208 243 299 268 222 225 221 223 228 227 227 230 232 232 236 237 236 236 236 232 215 205 197 196 191 191 190 193 192 198 207 229 232 252 264 283 305 309 317
225 224 228 232 233 237 235 227 221 223 233 233 246 247 249 249 254 253 258 271 268 266 261 257 256 258 259 252 248 248 252 256 257 268 267 252 250 243 237 230 225 225 226 235 237 249 184 218 217 252 259 233 228 230 231 234 230 226 228 235 236 239 241 241 241 240 234 219 211 206 202 201 205 202 203 208 216 225 235 242 256 263 283 297 300
223 221 226 232 232 232 233 225 221 221 230 236 246 247 247 251 256 250 246 252 260 261 263 262 263 265 264 258 252 247 252 254 256 256 261 257 246 240 235 230 219 220 226 225 232 236 241 191 211 225 235 239 235 235 235 236 239 239 235 234 238 240 241 241 242 242 240 231 222 217 212 212 212 212 212 217 220 225 235 243 250 255 263 277 287
222 217 222 230 229 225 229 228 223 226 229 234 242 244 246 248 250 252 247 249 263 269 272 284 281 276 268 263 257 251 253 253 255 258 255 253 254 246 230 227 227 223 222 223 221 229 232 230 212 222 223 222 239 232 232 234 240 244 242 238 237 239 241 241 242 242 241 238 230 224 221 218 219 221 221 221 223 228 233 243 246 251 257 263 274
220 215 220 227 229 222 223 222 215 222 230 236 238 237 237 242 246 250 253 249 250 263 270 271 269 271 270 269 260 259 251 249 249 253 253 251 249 238 230 224 228 227 223 220 228 223 227 230 229 230 240 209 220 239 238 242 251 244 242 242 239 238 238 240 241 242 243 241 237 229 227 224 224 226 226 226 228 229 234 237 244 250 255 259 265
219 205 208 216 225 228 222 215 213 216 237 242 237 239 240 240 246 242 249 254 249 242 254 257 265 271 266 261 263 252 255 249 253 248 243 246 241 240 235 229 227 229 222 220 224 226 229 230 232 233 234 240 204 216 242 247 243 244 241 240 242 243 239 238 239 240 243 244 243 237 230 228 227 227 230 230 232 233 235 239 243 249 253 258 262
222 216 215 217 222 224 219 218 215 235 240 242 244 244 244 242 243 251 243 249 255 238 229 208 243 252 285 292 283 280 266 241 238 243 245 237 238 241 243 235 233 230 225 221 222 228 229 233 235 234 231 227 232 220 208 220 229 234 237 236 239 243 246 243 242 240 240 242 245 243 238 232 230 229 230 233 233 236 238 241 243 247 252 256 260
222 222 226 229 232 226 223 224 222 230 233 238 238 239 239 239 237 240 244 232 246 256 237 214 260 251 269 293 285 294 256 219 226 239 229 230 233 242 240 243 242 232 228 228 229 228 232 231 235 236 236 230 229 227 221 221 229 210 223 233 237 239 245 248 247 245 244 240 242 244 243 239 233 231 230 232 234 235 239 241 243 246 249 254 258
221 220 222 226 228 231 230 234 226 224 230 237 238 238 236 235 234 235 239 254 228 238 221 228 236 227 260 225 270 297 295 281 287 243 199 222 231 240 241 244 243 237 231 235 235 237 234 231 233 238 237 238 234 231 232 234 222 216 221 229 230 237 243 250 252 247 245 242 242 243 244 243 240 234 232 233 233 235 237 240 242 246 249 252 257
223 222 222 224 227 232 231 231 229 229 227 237 240 234 229 230 230 235 231 234 245 234 211 213 228 234 244 264 255 244 237 272 318 274 183 213 221 232 239 241 238 234 234 241 242 241 239 236 232 233 232 235 235 236 238 236 233 224 225 225 233 235 240 243 248 252 249 242 240 243 245 245 244 242 237 234 234 235 237 239 242 246 249 252 256
225 225 223 224 230 229 231 230 228 229 228 230 237 237 231 227 224 228 231 233 245 252 245 207 223 235 238 244 257 277 301 339 82 278 201 233 241 225 237 234 234 234 235 241 238 239 240 243 237 232 227 224 227 231 237 237 231 227 227 224 216 225 230 236 241 244 248 246 243 241 244 246 245 243 244 240 237 237 238 240 244 247 250 252 255
225 227 226 226 230 229 229 231 231 228 225 231 235 233 231 225 227 230 235 232 234 247 246 239 219 233 235 241 250 255 260 265 264 299 284 240 221 238 237 229 227 228 236 239 239 239 236 234 232 230 227 219 220 225 229 235 234 235 236 237 223 220 225 228 232 238 242 247 246 242 242 245 246 244 245 247 246 243 243 244 245 248 251 253 256
226 227 226 229 226 230 230 229 231 232 228 230 233 231 229 228 230 235 238 238 235 239 246 239 237 243 210 234 242 247 251 256 257 258 270 280 269 206 270 255 232 237 241 240 238 237 238 233 231 227 223 217 217 220 224 225 224 225 231 228 229 224 224 228 229 231 236 242 247 247 242 242 245 248 248 248 250 250 246 245 245 247 249 251 254
221 225 224 225 224 228 229 228 229 231 230 235 234 237 236 234 231 229 231 233 234 236 240 243 239 247 235 225 229 236 238 238 243 240 246 260 264 255 257 209 216 236 237 230 237 237 236 236 233 226 220 222 216 217 221 223 221 220 227 221 223 227 227 227 228 229 231 236 242 246 247 245 242 244 246 249 250 251 249 244 245 248 250 251 253
217 225 226 226 227 224 227 228 227 229 229 232 236 235 234 234 234 234 231 234 234 233 234 240 243 247 243 245 228 228 231 237 236 229 234 233 253 258 264 269 268 242 213 225 223 230 229 230 229 227 229 231 226 220 217 221 221 216 219 216 217 224 229 230 230 230 230 232 234 240 245 248 247 246 244 245 247 248 250 251 247 248 251 253 254
211 225 226 223 223 224 225 227 227 227 227 229 231 232 232 233 234 233 233 231 232 232 230 234 240 245 245 238 242 238 226 218 220 211 223 241 244 252 258 250 255 272 263 230 216 219 219 217 226 230 228 227 225 222 218 221 223 227 226 219 216 219 227 231 232 232 232 231 232 235 239 244 248 248 246 247 246 247 248 250 251 250 252 255 257
209 219 226 220 220 222 222 225 225 224 226 226 229 229 230 231 231 229 230 229 229 227 228 228 225 237 238 238 243 246 246 248 246 242 242 252 253 258 261 263 256 253 264 272 232 227 218 222 224 225 221 224 228 225 226 228 229 227 227 226 218 223 227 230 233 234 233 233 232 230 230 233 235 238 241 243 246 246 248 249 252 253 254 257 259
220 218 219 218 216 221 219 218 221 223 225 226 228 227 229 229 229 227 225 222 220 221 225 229 225 224 229 235 239 239 242 245 248 249 252 257 255 260 259 254 261 272 272 266 264 237 230 237 237 228 230 231 234 229 229 227 233 216 216 232 221 229 232 235 237 237 236 234 232 229 225 224 228 232 234 237 239 243 246 249 252 254 257 260 262
209 212 211 209 216 221 224 224 226 227 225 227 227 226 225 227 229 229 228 224 221 218 222 224 225 225 229 239 234 237 239 233 237 245 251 250 249 248 258 254 252 263 267 253 252 261 233 224 239 241 237 237 235 231 229 231 237 225 208 224 230 228 233 237 239 240 239 238 234 230 227 228 231 233 234 236 239 243 246 249 252 255 258 259 262
208 207 198 198 205 223 226 228 227 227 227 226 227 228 226 228 231 231 231 229 222 219 223 222 228 230 230 233 240 239 240 241 243 245 243 243 244 241 226 251 255 242 251 241 266 239 258 251 220 229 233 235 231 230 231 231 232 222 202 219 239 230 229 237 241 242 241 241 240 235 230 229 231 233 233 234 239 241 243 246 249 252 255 257 260
213 201 195 193 202 220 222 223 226 225 224 225 225 226 227 226 228 229 233 218 223 220 226 226 229 229 230 230 235 238 237 242 242 238 238 239 239 238 240 239 255 267 215 249 245 271 220 239 235 217 230 228 232 237 241 245 253 221 191 226 236 239 230 234 240 243 244 244 243 240 237 231 229 233 236 236 237 238 242 246 249 252 255 258 261
215 196 195 198 206 220 223 222 221 223 224 223 222 224 224 226 229 227 228 225 220 225 224 221 225 231 233 229 232 237 234 234 237 232 234 236 232 231 226 231 234 249 261 235 216 256 253 202 272 236 202 243 253 251 251 243 240 203 221 221 233 243 238 231 237 243 246 246 244 241 239 238 240 240 241 242 241 237 237 241 244 248 252 255 257
209 192 200 204 210 220 226 225 220 219 221 220 219 220 221 226 225 226 227 225 225 224 224 227 231 228 229 230 229 236 227 232 235 232 235 232 231 233 234 228 225 239 246 267 264 202 270 254 222 262 118 223 262 260 245 248 179 179 224 227 229 237 241 238 234 237 240 243 243 242 242 242 244 245 243 242 246 248 246 243 244 247 251 255 257
206 206 204 217 215 223 224 226 222 219 218 219 217 217 220 224 223 223 217 217 223 224 218 219 229 227 231 233 229 232 229 231 234 239 240 233 233 235 233 221 220 223 236 241 264 176 209 257 212 350 311 192 211 252 239 248 193 193 227 238 243 250 248 244 237 240 242 244 244 244 244 244 245 245 247 249 250 249 252 253 251 252 254 260 262
224 210 224 226 223 222 221 221 222 221 219 219 217 218 218 222 220 217 214 212 223 224 222 215 217 219 225 228 225 227 225 226 228 230 234 238 242 241 227 211 221 229 240 251 252 263 191 232 259 256 203 240 216 241 252 238 215 196 240 245 256 255 231 250 236 236 243 246 249 250 249 249 250 250 251 253 256 253 253 256 258 260 260 262 263
225 219 219 221 221 220 219 218 219 218 215 216 216 216 218 220 217 214 211 213 219 223 219 223 220 225 228 229 228 224 217 227 229 230 238 235 222 222 221 210 221 217 226 247 260 271 260 170 232 230 137 242 256 211 262 258 247 215 231 264 265 254 250 248 255 231 233 243 250 253 254 254 254 256 256 258 260 258 256 259 262 263 264 265 264
218 216 217 218 218 217 218 219 218 218 213 214 213 213 218 219 219 213 212 208 216 221 217 225 216 216 220 226 228 223 218 233 231 223 217 215 209 209 204 202 219 227 203 222 244 248 262 197 248 134 237 161 271 166 257 289 297 287 258 253 250 251 257 260 258 264 235 239 248 255 258 260 263 263 261 263 264 260 260 260 262 264 264 264 263
213 215 215 215 212 211 215 217 216 213 214 213 212 213 217 216 217 215 212 209 210 213 214 219 217 214 221 221 220 215 214 223 225 226 215 209 202 206 222 208 223 231 225 201 219 244 253 254 234 236 200 184 232 321 285 315 325 323 289 268 259 255 256 265 272 274 266 246 250 254 259 262 263 263 261 256 258 262 260 262 264 264 263 264 265
209 208 211 212 208 210 214 212 212 211 212 214 214 214 216 214 214 212 209 211 212 211 212 212 215 211 218 225 221 220 207 217 223 217 210 203 192 202 209 210 208 225 226 196 219 234 229 249 243 215 127 218 188 121 12 333 294 286 262 277 269 265 269 260 254 262 266 248 254 259 260 260 260 260 258 258 257 257 257 257 258 260 263 265 267
210 202 205 207 207 209 211 213 210 212 212 212 215 216 215 212 210 211 210 209 211 212 214 215 211 209 215 217 215 209 189 209 215 206 204 208 208 204 212 210 197 213 203 203 220 219 228 233 247 216 155 219 111 65 97 282 259 240 243 253 270 272 267 262 258 255 263 268 263 262 264 265 263 259 257 257 256 256 255 256 257 260 264 266 268
206 199 201 204 205 210 211 212 211 212 212 212 214 215 211 209 212 212 210 210 208 211 213 218 215 211 210 208 215 196 192 189 213 212 199 208 206 207 218 220 213 193 194 202 210 215 219 235 225 257 166 210 212 200 157 204 269 287 277 253 240 243 255 264 252 237 244 250 257 254 253 260 264 266 264 261 260 258 258 260 261 265 267 266 266
207 198 200 203 208 209 209 208 213 213 215 211 212 212 209 205 206 206 209 213 205 191 208 214 214 210 204 204 187 177 172 194 207 205 202 208 203 210 208 212 200 189 193 182 178 204 217 226 236 233 257 160 186 245 132 121 284 279 291 300 291 244 219 251 279 234 186 253 243 246 257 271 279 278 270 268 264 263 266 268 267 266 268 269 270
200 194 205 203 205 205 210 211 214 212 211 210 210 209 205 200 197 206 191 203 204 208 207 196 198 197 201 194 193 192 193 201 207 213 197 203 198 213 208 196 194 210 211 185 181 197 207 211 214 211 208 223 201 209 142 169 259 245 214 248 289 297 301 292 263 290 297 252 281 273 226 237 256 262 267 272 272 272 274 278 271 267 265 264 265
212 210 203 203 201 206 214 214 213 208 209 209 203 200 175 179 184 176 172 190 195 199 204 207 205 193 185 197 201 199 202 207 206 210 211 205 193 206 206 186 197 195 201 185 187 181 202 208 219 212 216 217 224 237 242 232 236 270 333 261 278 285 290 297 304 214 264 291 296 287 280 260 265 264 266 265 259 253 254 249 261 262 260 261 263
211 207 203 204 206 207 208 212 212 208 211 207 199 198 192 191 191 196 191 188 182 193 192 197 209 217 209 199 208 209 208 208 207 212 215 210 210 212 201 189 183 190 193 186 188 198 199 207 219 196 211 228 243 247 244 253 275 295 277 269 273 293 296 294 288 107 90 270 305 297 293 215 237 279 272 271 270 251 263 260 258 260 262 262 262
209 205 200 205 210 207 204 199 203 208 211 203 191 198 201 189 187 195 192 164 176 188 191 193 203 187 199 215 215 203 206 210 213 212 216 214 211 214 188 188 190 187 184 188 204 192 197 216 208 198 225 252 255 260 244 258 266 252 276 291 292 299 308 328 323 106 104 40 260 290 298 125 144 279 279 272 267 258 265 263 268 267 267 267 268
207 197 206 209 205 204 202 201 201 201 208 197 188 197 198 192 181 184 181 168 174 193 196 200 205 198 186 204 206 197 203 204 204 204 214 217 211 201 195 199 205 212 214 194 188 194 198 208 207 220 219 235 223 202 214 216 245 259 254 266 267 285 297 296 290 300 77 28 333 297 288 267 170 265 274 271 274 275 274 285 285 279 277 276 276
186 203 210 203 208 199 197 200 204 197 202 190 191 191 188 182 181 183 194 195 192 204 207 209 206 195 191 172 187 200 208 200 199 198 197 198 193 180 172 171 172 185 189 172 0 243 192 204 207 209 220 220 209 186 105 102 49 263 270 262 255 274 281 276 282 294 308 65 308 282 283 287 257 288 287 291 298 310 292 266 268 276 280 280 280
200 206 205 204 199 195 199 200 199 198 204 197 194 191 187 185 187 189 199 195 199 204 199 204 204 201 195 187 193 196 201 195 199 195 193 191 176 164 166 176 171 148 143 139 136 128 250 224 200 206 173 136 194 100 108 135 191 228 256 265 297 281 268 267 291 286 287 121 286 302 288 271 94 315 299 311 348 315 297 288 279 281 289 295 297
200 203 200 200 200 196 199 201 202 206 213 190 196 193 192 191 192 191 201 203 207 209 210 208 205 197 191 193 196 198 199 195 191 187 188 188 179 169 154 149 145 138 141 143 149 154 153 174 208 198 119 132 149 148 134 160 190 233 252 260 254 268 278 281 264 234 253 166 216 260 281 323 317 304 303 320 328 312 303 293 291 305 313 312 312
208 202 208 199 200 203 203 200 209 220 211 192 195 193 191 191 187 195 193 197 203 208 210 206 202 200 195 194 200 204 200 196 192 186 183 158 155 157 154 136 124 119 101 74 73 65 70 86 109 110 101 91 80 96 97 158 184 169 181 183 181 212 251 267 276 244 258 114 128 293 284 297 321 320 315 314 306 298 300 299 20 13 343 331 326
203 206 208 202 204 203 204 209 216 227 221 202 199 197 195 190 185 197 192 195 205 207 209 197 203 206 202 201 202 194 189 200 178 176 174 159 152 161 146 120 132 139 133 108 86 87 97 100 100 104 97 99 101 100 94 81 128 145 175 206 199 221 260 269 279 263 275 91 115 358 303 291 331 333 306 305 296 290 293 334 20 12 1 354 346
208 209 200 205 207 208 208 218 218 227 233 211 206 208 202 198 194 196 198 202 211 210 213 206 207 210 210 205 202 202 185 177 162 171 169 164 162 154 146 146 149 153 139 135 128 101 92 91 90 86 82 84 96 90 76 72 80 165 199 197 84 262 259 266 278 305 297 301 60 348 311 293 350 326 320 310 280 238 259 30 9 44 53 26 27
210 192 195 205 211 211 216 221 212 219 230 216 207 210 206 203 199 199 195 201 202 207 198 200 201 208 203 195 199 198 185 161 166 174 173 175 164 168 163 147 156 163 163 156 151 149 150 143 136 131 110 108 116 111 88 75 64 66 105 128 190 226 246 267 289 299 295 120 79 338 326 317 353 336 6 335 326 327 131 49 331 355 352 343 352